EDT,Max TemperatureF,Mean TemperatureF,Min TemperatureF,Max Dew PointF,MeanDew PointF,Min DewpointF,Max Humidity, Mean Humidity, Min Humidity, Max Sea Level PressureIn, Mean Sea Level PressureIn, Min Sea Level PressureIn, Max VisibilityMiles, Mean VisibilityMiles, Min VisibilityMiles, Max Wind SpeedMPH, Mean Wind SpeedMPH, Max Gust SpeedMPH,PrecipitationIn, CloudCover, Events, WindDirDegrees
2012-9-1,84,77,70,70,67,64,90,73,55,30.28,30.15,30.05,10,10,10,17,3,21,0.01,3,Rain,217
2012-9-2,85,76,66,68,66,64,93,74,55,30.14,30.00,29.91,10,10,10,14,5,18,T,4,,182
2012-9-3,82,75,68,70,66,65,93,78,62,30.09,29.95,29.90,10,10,10,22,9,33,0.44,4,Rain,140
2012-9-4,81,74,67,70,66,64,97,80,62,30.04,29.92,29.86,10,10,10,14,7,18,0.46,6,Rain,181
2012-9-5,84,76,68,70,68,66,97,78,58,30.01,29.91,29.81,10,10,10,23,3,28,0.53,7,Rain,231
2012-9-6,83,74,64,67,65,62,93,74,54,30.06,29.95,29.83,10,10,10,12,3,16,0.04,5,Rain,357
2012-9-7,85,74,62,66,62,56,93,67,40,30.08,29.94,29.80,10,10,10,10,4,15,0.00,3,,180
2012-9-8,73,62,51,64,59,50,96,82,68,29.98,29.82,29.69,10,10,10,23,7,35,0.29,6,Rain,277
2012-9-9,69,60,51,54,51,46,100,74,47,30.05,29.98,29.92,10,10,10,13,4,17,0.00,6,,231
2012-9-10,68,58,48,54,48,41,100,71,42,30.23,30.15,30.03,10,10,10,15,4,20,T,3,Rain,351
2012-9-11,75,60,44,51,46,41,89,65,41,30.34,30.27,30.22,10,10,10,10,3,14,0.00,0,,190
2012-9-12,78,66,53,55,53,50,89,66,43,30.34,30.30,30.26,10,10,10,12,5,16,0.00,1,,136
2012-9-13,76,66,55,54,50,43,86,60,33,30.36,30.30,30.25,10,10,10,10,5,16,0.00,0,,140
2012-9-14,76,65,53,57,52,48,84,64,43,30.28,30.23,30.19,10,10,10,12,3,15,0.00,2,,300
2012-9-15,72,63,53,59,54,43,90,67,44,30.31,30.23,30.15,10,10,10,12,5,15,0.00,5,,347
2012-9-16,74,64,53,55,51,46,87,66,44,30.17,30.11,30.05,10,10,10,10,2,13,0.00,3,,263
2012-9-17,73,67,60,62,59,54,93,80,66,30.09,29.99,29.83,10,10,10,14,6,20,0.35,7,Rain,154
2012-9-18,65,60,55,63,59,54,97,92,86,29.97,29.79,29.63,10,10,10,18,6,24,1.90,8,Rain,266
2012-9-19,62,54,46,54,45,39,93,68,43,30.17,30.08,29.94,10,10,10,15,5,20,0.00,4,,340
2012-9-20,72,60,47,54,50,41,89,70,51,30.16,30.10,30.03,10,10,10,15,6,21,0.00,1,,184
2012-9-21,74,65,55,55,53,51,86,66,46,30.07,30.01,29.90,10,10,10,15,7,21,0.00,0,,201
2012-9-22,74,62,49,56,50,39,73,59,44,30.12,29.93,29.87,10,10,10,26,10,35,0.00,4,,251
2012-9-23,60,48,36,37,35,32,85,62,39,30.25,30.17,30.08,10,10,10,13,4,21,0.00,1,,343
2012-9-24,63,50,37,39,36,32,92,63,34,30.31,30.23,30.17,10,10,10,10,4,15,0.00,0,,168
2012-9-25,65,54,43,54,46,37,93,69,44,30.27,30.18,30.10,10,10,10,22,4,30,0.44,3,Rain,186
2012-9-26,77,65,53,59,55,52,93,73,53,30.21,30.16,30.11,10,10,10,16,6,21,0.00,1,,216
2012-9-27,73,65,57,62,57,53,97,77,57,30.19,30.15,30.11,10,10,10,15,4,18,0.20,4,Rain,209
2012-9-28,63,61,58,61,59,57,97,94,90,30.19,30.09,30.01,10,10,10,12,4,18,0.64,8,Rain,246
2012-9-29,66,55,44,58,51,44,93,73,52,30.07,30.00,29.92,10,10,10,15,4,18,T,6,Rain,357
2012-9-30,66,54,42,48,45,40,96,72,48,29.99,29.92,29.86,10,10,10,16,4,20,0.00,1,,214